Location: Newark
(52.2583°N, 7.1190°W)
Time: 23:57:58
(UTC+00:00)

N. Korean satellite - Pass Details

Date: 19 October 2019
Orbit: 456 x 506 km, 97.2° (Epoch: 16 November)

Event Time Altitude Azimuth Distance (km) Brightness Sun altitude
Rises 05:11:36 0° 32° (NNE) 2,551 10.8 -17.3°
Reaches altitude 10° 05:14:59 10° 67° (ENE) 1,678 10.5 -16.7°
Maximum altitude 05:16:14 11° 87° (E) 1,590 10.5 -16.6°
Drops below altitude 10° 05:17:29 10° 108° (ESE) 1,682 10.4 -16.4°
Sets 05:20:54 0° 143° (SE) 2,569 10.7 -15.8°
